Flag for Czech Republic Weather past 2 weeks in Brno, Czech Republic

Now
69 °F

Partly sunny.


Feels Like: 69 °F
Forecast: 54 / 81 °F
Wind: 6 mph from North

Location: Brno / Turany

Current Time: Jul 24, 2014 at 1:20:22 PM

Latest Report: Jul 24, 2014 at 12:00 PM


Visibility: 22 mi

Pressure: 29.85 "Hg

Humidity: 61%

Dew point: 55 °F

Location of BrnoLocation

Historic Weather in Brno — Graph

°F

Brno temperature yesterday

Maximum temperature yesterday: 82 °F (at 2:00 PM)
Minimum temperature yesterday: 64 °F (at 6:00 AM)
Average temperature yesterday: 69 °F

Past Weeks' High & Low Weather Summary

 TemperatureHumidityPressure
High92 °F (Jul 20, 5:00 PM)92% (Jul 12, 3:00 AM)30.13 "Hg (Jul 12, 3:00 AM)
Low54 °F (Jul 10, 3:00 AM)23% (Jul 17, 4:00 PM)29.66 "Hg (Jul 21, 3:00 PM)
Average71 °F62%29.90 "Hg
* Reported Jul 9 3:00 PM — Jul 24 12:00 Noon, Brno, Weather by CustomWeather, © 2014

Note: Actual official high and low records may vary slightly from our data, if they occured in-between our weather recording intervals... More about our weather records

Advertising

Brno weather history for previous 24 hours

 ConditionsComfort  
Time TempWeatherWind HumidityBarometerVisibility
12:00 PM
Jul 24
69 °FPartly sunny.6 mph61%29.85 "Hg22 mi
11:00 AM71 °FPartly sunny.7 mph59%29.85 "Hg22 mi
10:00 AM68 °FPartly sunny.6 mph63%29.85 "Hg19 mi
9:00 AM67 °FPartly sunny.6 mph66%29.86 "Hg16 mi
8:00 AM65 °FPartly sunny.7 mph71%29.87 "Hg16 mi
7:00 AM62 °FPartly sunny.6 mph75%29.87 "Hg16 mi
6:00 AM61 °FPartly sunny.3 mph77%29.88 "Hg16 mi
5:00 AM60 °FPassing clouds.1 mph76%29.88 "Hg16 mi
4:00 AM61 °FPassing clouds.3 mph75%29.89 "Hg12 mi
3:00 AM62 °FPassing clouds.5 mph72%29.89 "Hg12 mi
2:00 AM64 °FPassing clouds.3 mph68%29.90 "Hg12 mi
1:00 AM64 °FPassing clouds.3 mph67%29.90 "Hg12 mi
12:00 AM65 °FPassing clouds.3 mph66%29.90 "Hg12 mi
11:00 PM
Jul 23
66 °FPassing clouds.2 mph61%29.90 "Hg12 mi
10:00 PM67 °FPassing clouds.6 mph60%29.90 "Hg12 mi
9:00 PM69 °FPassing clouds.6 mph57%29.90 "Hg19 mi
8:00 PM71 °FPartly sunny.6 mph56%29.89 "Hg22 mi
7:00 PM73 °FPartly sunny.5 mph51%29.88 "Hg22 mi
6:00 PM71 °FPartly sunny.5 mph57%29.87 "Hg22 mi
5:00 PM68 °FThunderstorms. Partly sunny.5 mph69%29.88 "Hg19 mi
4:00 PM69 °FThundershowers. Overcast.8 mph63%29.88 "Hg12 mi
2:00 PM82 °FThunderstorms. Partly sunny.9 mph35%29.84 "Hg19 mi
Weather by CustomWeather, © 2014

See weather overviewHow to use our weather pages